sat.trackr.live / text

‹ back to catalog

STARLINK-4675

NORAD 53601 · 2022-104P

PAYLOAD ACTIVE UNKNOWN

§ Identity

Operator
Country
US
Launch date
2022-08-28
Launch site
AFETR
Launch vehicle
Mass (kg)
RCS (m²)

Purposes: comms

External: N2YO · Heavens-Above · Gunter

§ Orbital elements

Epoch: 2026-05-25T01:01:55.992288Z

Period
95.44 min
Inclination
53.2171°
Eccentricity
0.0001220
Mean motion
15.08842021 rev/d
Perigee alt
538.9 km
Apogee alt
540.6 km
Semi-major
6,917.9 km
B*
4.2465e-5
RAAN
261.2091°
Arg perigee
88.4900°
Mean anomaly
271.6232°
Rev number
20,714

§ Raw data

STARLINK-46751 53601U 22104P   26145.04300917  .00000388  00000+0  42465-4 0  99992 53601  53.2171 261.2091 0001220  88.4900 271.6232 15.08842021207149

JSON: /api/v1/satellites/53601 · /tle

For live sub-satellite position, see the globe view (requires WebGL).

§ Visibility from observer

Set your observer location to see the next 7 days of passes ≥ 10°. The values pass through the URL so the page stays shareable.

No JS? Fill the form by hand. The geolocation button needs JavaScript.